This is the latest recevied weather packets stored in our database for station/object AC2VK-1. If no packets are shown the sender has not sent any weather packets the latest 10 day(s).
| Time | Temp. | Humidity | Pressure | Rain* | Wind** | Luminosity | Snow |
|---|---|---|---|---|---|---|---|
| 1777406377 | 23.33° C | 74% | 1019.1 hPa | 0 mm | - | - | - |
| 1777405777 | 23.33° C | 74% | 1019.1 hPa | 0 mm | - | - | - |
| 1777405177 | 22.78° C | 74% | 1019.2 hPa | 0 mm | - | - | - |
| 1777404577 | 23.33° C | 72% | 1019 hPa | 0 mm | - | - | - |
| 1777403977 | 23.89° C | 71% | 1019 hPa | 0 mm | - | - | - |
| 1777403377 | 23.33° C | 72% | 1018.9 hPa | 0 mm | - | - | - |
| 1777402777 | 23.33° C | 72% | 1019.2 hPa | 0 mm | - | - | - |
| 1777402177 | 23.33° C | 72% | 1019.4 hPa | 0 mm | - | - | - |
| 1777401577 | 22.78° C | 73% | 1019.5 hPa | 0 mm | - | - | - |
| 1777400977 | 22.78° C | 73% | 1019.6 hPa | 0 mm | - | - | - |
| 1777400377 | 22.78° C | 72% | 1019.6 hPa | 0 mm | - | - | - |
| 1777399779 | 22.78° C | 73% | 1019.6 hPa | 0 mm | - | - | - |
| 1777399177 | 22.22° C | 73% | 1019.4 hPa | 0 mm | - | - | - |
| 1777398577 | 22.78° C | 71% | 1019.6 hPa | 0 mm | - | - | - |
| 1777397977 | 23.33° C | 71% | 1019.5 hPa | 0 mm | - | - | - |
| 1777397377 | 22.78° C | 71% | 1019.4 hPa | 0 mm | - | - | - |
| 1777396777 | 22.22° C | 74% | 1019.5 hPa | 0 mm | - | - | - |
| 1777396177 | 22.22° C | 74% | 1019.6 hPa | 0 mm | - | - | - |
| 1777395577 | 21.67° C | 73% | 1019.8 hPa | 0 mm | - | - | - |
| 1777394977 | 21.67° C | 75% | 1019.9 hPa | 0 mm | - | - | - |
| 1777394377 | 21.11° C | 74% | 1019.9 hPa | 0 mm | - | - | - |
| 1777393777 | 21.11° C | 77% | 1020 hPa | 0 mm | - | - | - |
| 1777393177 | 20° C | 79% | 1020.1 hPa | 0 mm | - | - | - |
| 1777392577 | 20° C | 81% | 1020 hPa | 0 mm | - | - | - |
| 1777391977 | 18.33° C | 83% | 1020.1 hPa | 0 mm | - | - | - |
* Rain latest hour (hover to see other rain measurements)
** Current wind speed in m/s (hover to see current wind gust speed)